STARLINK-34258, 64211

Orbit data source: Space-Track

STARLINK-34258, 64211 is a payload satellite owned by SpaceX/Seattle (US) in LEO that was launched on Thu, 05 Jun 2025 UTC via an FALCON 9 launch vehicle from the Air Force Western Test Range (AFWTR). Payload-class satellites include a variety of spacecraft equipped with specific instruments for various scientific and technological missions. These include communications satellites like Starlink; space stations such as the ISS; scientific satellites like the Hubble; Earth observation satellites from companies like Planet Labs, Umbra, and HawkEye 360; GPS; miniature CubeSats for education and research; and military/defense satellites.

Loading next visibility...
Identifier
64211, 2025-117J
Orbit
LEO
Last TLE update
8 hours ago
Origin
Manufacturer
SpaceX/Seattle
Mission
Operational spacecraft
Bus & Motor
STARLINK V2MO, Unknown motor
Mass
575 kg wet, ~530 kg dry
Launch date (UTC)
2025-06-05 (2 weeks ago)
Launch vehicle
FALCON 9
Launch site
Air Force Western Test Range (AFWTR)
Object type
Payload
Rocket body
Debris
Shape & HBR
Unknown
Radar Cross Section
Large (>1 m²)

Expand to show TLE details & history

TLE from 8 hours ago
0 STARLINK-34258
1 64211U 25117J   25169.91668981 -.01488664  00000-0 -14198-1 0  9994
2 64211  53.1596 190.4850 0001116  92.8422 173.8744 15.68862513  4012
Epoch: 2025-06-18T22:00Z
TLE epoch observation values (Epoch: 2025-06-18T22:00:01.999Z)
Latitude
-53.18927°
Longitude
-142.36543°
Altitude
381.378 km
Speed
7.68 km/s
True Right ascension
06h 20m 08s
True Declination
-53° 00' 54"
Sunlit
Object was in daylight at epoch
Visualization orbit readout
Latitude
53.23843°
Longitude
45.60433°
Altitude
371.187 km
Speed
7.694 km/s
Apparent Right ascension
01h 41m 27s
Apparent Declination
32° 56' 57"
Sunlit
Object is in daylight
Visualization observer readout
Local Sidereal Time
17:16:43
Azimuth
42.658° NE
Elevation
-1.776°
Doppler factor
1
Orbital elements
Apogee altitude
363.166 km
Perigee altitude
361.661 km
Semi-major axis
6,740.551 km
Eccentricity
0.00011
Inclination
53.1596°
RAAN
190.485°
Arg. of periapsis
92.8422°
True anomaly
Unknown
Mean anomaly
173.8744°
Eccentric anomaly
Unknown
Mean motion
3.92193 °/min
Orbital period
91.79 mins
BSTAR
-0.014198
Loading maneuver chart data...
Loading SW <> Apogee altitude chart data...
Loading historical data...
Loading historical data...
Loading historical data...
Loading historical data...
Loading historical data...
Loading historical data...
Loading historical data...

STARLINK-34258 Visibility forecast

Observer location: undefined°, undefined°

Span
Click to sort rows by Start time (UTC) header in descending order
Start Az.
Max El. time (UTC)
Max El. Az.
Max El.
End time (UTC)
End Az.
4 mins2025-06-19 11:09:14.200Z303.886° NW2025-06-19 11:10:14.200Z286.58° WNW41.592°2025-06-19 11:13:14.200Z135.66° SSE
4 mins2025-06-20 03:40:14.200Z208.75° SW2025-06-20 03:42:14.200Z106.034° ESE38.459°2025-06-20 03:44:14.200Z60.185° ENE
|